This is the latest recevied weather packets stored in our database for station/object N4TLC. If no packets are shown the sender has not sent any weather packets the latest 10 day(s).
| Time | Temp. | Humidity | Pressure | Rain* | Wind** | Luminosity | Snow |
|---|---|---|---|---|---|---|---|
| 1777754750 | 15.56° C | 40% | 1013.5 hPa | 0 mm | - | 769 W/m² | - |
| 1777754448 | 15.56° C | 40% | 1013.4 hPa | 0 mm | - | 357 W/m² | - |
| 1777754145 | 15.56° C | 39% | 1013.4 hPa | 0 mm | - | 275 W/m² | - |
| 1777753842 | 15° C | 39% | 1013.5 hPa | 0 mm | - | 424 W/m² | - |
| 1777753538 | 15° C | 40% | 1013.5 hPa | 0 mm | - | 345 W/m² | - |
| 1777753236 | 15° C | 41% | 1013.5 hPa | 0 mm | - | 290 W/m² | - |
| 1777752932 | 15° C | 40% | 1013.7 hPa | 0 mm | - | 269 W/m² | - |
| 1777752628 | 15° C | 38% | 1013.5 hPa | 0 mm | - | 462 W/m² | - |
| 1777752324 | 15.56° C | 37% | 1013.5 hPa | 0 mm | - | 475 W/m² | - |
| 1777752022 | 15.56° C | 39% | 1013.9 hPa | 0 mm | - | 484 W/m² | - |
| 1777751720 | 15° C | 40% | 1014.1 hPa | 0 mm | - | 471 W/m² | - |
| 1777751415 | 14.44° C | 42% | 1014.3 hPa | 0 mm | - | 459 W/m² | - |
| 1777751113 | 14.44° C | 39% | 1014.2 hPa | 0 mm | - | 356 W/m² | - |
| 1777750809 | 14.44° C | 39% | 1014.3 hPa | 0 mm | - | 379 W/m² | - |
| 1777750506 | 14.44° C | 40% | 1014.4 hPa | 0 mm | - | 392 W/m² | - |
| 1777750202 | 14.44° C | 40% | 1014.4 hPa | 0 mm | - | 397 W/m² | - |
| 1777749898 | 13.89° C | 38% | 1014.3 hPa | 0 mm | - | 409 W/m² | - |
| 1777749595 | 13.89° C | 39% | 1014.3 hPa | 0 mm | - | 415 W/m² | - |
| 1777749293 | 13.89° C | 37% | 1014.4 hPa | 0 mm | - | 361 W/m² | - |
| 1777748991 | 13.89° C | 40% | 1014.4 hPa | 0 mm | - | 345 W/m² | - |
| 1777748688 | 13.89° C | 43% | 1014.8 hPa | 0 mm | - | 371 W/m² | - |
| 1777748384 | 13.89° C | 42% | 1014.9 hPa | 0 mm | - | 384 W/m² | - |
| 1777748080 | 13.33° C | 44% | 1014.7 hPa | 0 mm | - | 362 W/m² | - |
| 1777747777 | 12.78° C | 41% | 1014.8 hPa | 0 mm | - | 406 W/m² | - |
| 1777747472 | 13.33° C | 44% | 1014.8 hPa | 0 mm | - | 307 W/m² | - |
* Rain latest hour (hover to see other rain measurements)
** Current wind speed in m/s (hover to see current wind gust speed)